Wind_Speed
19 20 21 21 21 23 23 23 23 24 23 22 23 23 22 22 21 22 21 21 21 21 20 21 20 19 19 19 19 20 20 20 20 19 19 19 19 18
20 21 21 21 22 23 23 23 23 24 23 22 22 22 21 21 22 21 21 21 20 20 20 21 21 20 20 20 20 21 20 20 20 20 20 20 19 19
21 21 22 22 23 23 22 22 22 22 22 22 21 21 21 21 21 21 19 19 19 19 19 20 20 20 20 21 21 21 20 21 21 20 20 20 20 20
22 22 22 22 23 23 22 22 22 22 21 21 20 19 20 20 19 19 19 19 19 19 19 19 19 20 20 21 21 21 21 21 21 21 21 21 20 20
22 22 23 23 22 22 22 22 22 22 21 20 20 20 20 20 19 20 20 20 20 19 19 20 20 20 20 21 21 21 21 21 22 22 21 21 21 21
22 23 23 23 23 22 22 22 22 22 21 21 21 20 20 20 19 20 20 21 20 20 19 19 19 20 21 21 21 22 21 21 21 21 22 22 22 22
24 24 24 23 23 22 22 22 22 21 21 22 21 20 20 20 20 21 21 20 19 19 20 19 19 20 20 21 21 22 22 22 22 23 22 22 23 23
24 25 25 25 23 23 23 23 23 22 21 21 21 20 20 20 20 20 20 19 19 19 19 19 20 20 20 21 22 22 22 22 23 24 24 23 23 23
25 25 24 25 24 24 23 23 22 21 21 21 20 20 21 20 20 20 20 19 18 19 20 20 20 19 20 21 21 22 22 22 23 24 24 24 24 23
26 25 25 24 24 24 22 21 21 20 21 20 20 21 20 20 20 19 18 19 19 20 20 20 20 21 21 21 22 23 23 23 23 24 24 24 24 24
26 25 25 24 23 23 22 22 21 21 20 20 21 21 20 20 20 19 19 19 19 21 21 21 21 21 21 22 23 23 23 23 24 24 24 25 25 25
25 24 24 23 23 23 23 22 22 21 20 20 21 21 21 21 21 20 20 19 20 21 22 22 22 22 22 22 23 24 24 24 24 25 25 25 26 26
24 23 23 23 23 23 23 23 22 21 20 21 21 21 21 21 21 21 21 21 21 21 22 23 23 23 23 23 24 25 25 26 26 26 26 26 26 26
24 24 24 25 24 24 24 23 23 22 22 22 22 22 22 21 21 22 22 22 23 23 23 23 24 25 25 25 25 26 26 27 27 27 27 27 28 28
25 25 25 25 25 25 25 25 25 24 23 23 23 23 23 23 23 23 23 23 23 24 24 24 25 25 26 27 26 26 27 27 28 28 28 29 29 29
26 26 26 26 26 27 26 26 25 25 25 25 24 24 25 25 25 25 25 24 24 24 25 25 25 26 27 27 27 27 27 28 29 30 29 29 30 31
27 27 27 27 27 26 26 26 26 26 26 26 26 26 26 25 26 26 26 26 26 26 26 25 26 26 26 27 28 28 28 29 30 30 31 30 30 31
27 27 27 27 26 26 26 27 27 27 27 27 27 27 27 27 27 27 27 27 27 26 26 27 27 27 27 27 28 29 30 30 30 31 31 32 32 31
26 26 26 25 25 25 26 26 26 27 26 26 27 27 27 27 27 27 28 27 27 28 28 28 28 28 29 29 29 30 30 31 31 31 32 32 32 32
26 26 26 25 25 25 25 25 26 26 26 26 27 27 27 27 28 28 29 29 29 29 29 29 30 29 29 30 30 30 31 31 31 32 32 33 33 33
26 26 25 25 25 25 25 25 25 26 26 26 27 28 28 28 28 29 29 30 30 31 31 31 31 31 30 30 31 31 32 33 33 33 33 33 34 34
25 25 26 26 26 26 26 26 26 27 27 27 28 28 28 28 28 29 29 30 30 31 31 31 32 32 32 31 32 33 33 33 34 34 34 34 34 34
26 26 26 27 28 27 27 27 27 28 28 29 29 29 28 28 28 28 29 30 31 31 31 32 32 32 32 32 33 33 34 34 34 34 33 34 34 35
Wind_Direction
290 288 289 290 290 289 288 287 287 287 285 283 281 279 279 276 277 277 274 271 270 266 264 262 259 256 254 253 251 250 249 250 252 255 253 252 254 256
290 290 290 290 291 291 291 289 287 288 286 285 282 279 277 277 278 279 277 271 268 266 263 260 258 255 255 252 252 250 250 251 252 254 253 253 255 256
291 291 291 291 291 291 290 289 290 289 286 285 282 277 277 279 279 278 275 271 267 266 262 260 259 257 255 253 253 251 252 252 253 252 253 254 255 256
291 292 292 291 290 290 289 290 290 289 287 286 283 278 277 276 276 278 275 271 267 265 263 259 258 258 258 255 254 252 253 253 253 254 254 255 255 255
289 291 292 291 290 289 288 289 290 288 285 284 282 279 276 274 275 277 276 273 268 265 262 260 260 258 256 254 253 252 253 253 254 254 253 254 254 255
289 289 291 290 289 289 289 289 289 288 284 283 284 279 276 274 275 278 275 272 269 264 262 260 260 258 256 256 255 254 251 251 253 253 253 254 254 256
289 289 290 288 289 287 288 289 288 287 287 285 283 279 277 277 277 278 274 270 268 264 262 261 261 260 257 257 256 256 253 252 253 253 254 255 256 257
290 290 290 289 286 285 286 288 289 290 289 284 279 277 276 277 278 278 275 269 266 263 262 262 261 260 259 257 257 257 254 254 254 254 254 256 257 258
292 291 290 289 284 286 286 288 290 289 287 283 279 276 276 276 277 277 275 268 265 264 263 262 263 263 261 259 257 257 255 256 257 256 255 256 257 258
290 289 289 288 287 287 287 288 288 286 284 282 279 276 275 277 277 275 273 271 269 266 263 263 264 263 262 261 260 258 257 257 257 257 256 255 256 258
290 288 289 290 289 287 285 286 286 284 281 279 278 277 276 275 275 275 274 274 271 267 267 266 265 264 263 263 263 262 260 260 259 258 256 255 256 259
290 289 289 288 287 285 284 284 284 283 281 279 278 278 278 276 277 277 276 275 273 271 269 268 267 265 264 265 265 264 263 261 261 259 258 258 258 260
291 291 289 287 286 286 286 283 282 280 277 278 279 278 276 274 274 274 274 274 274 274 272 270 269 268 267 267 266 266 265 263 261 260 258 258 259 259
289 289 288 286 285 285 285 282 279 278 277 278 278 278 276 274 272 272 273 273 274 275 274 271 269 270 269 269 268 267 267 265 262 259 258 258 259 259
288 287 286 286 284 284 284 282 278 276 276 277 276 276 276 275 273 272 273 273 272 275 275 273 271 270 270 270 269 268 266 265 262 259 259 260 260 261
287 286 286 286 284 284 283 281 279 277 276 276 276 276 276 275 275 274 273 273 274 275 276 275 274 271 271 270 268 268 266 265 264 261 260 261 261 262
287 287 286 285 283 283 281 280 280 279 278 277 276 275 276 276 275 273 273 273 275 276 275 275 275 274 271 270 269 267 266 265 264 263 260 261 261 262
288 288 286 284 283 282 280 281 280 280 279 278 278 277 277 276 275 274 274 274 275 275 276 276 276 275 273 272 270 268 266 264 264 263 262 262 263 264
288 289 287 284 283 283 281 282 282 281 279 278 278 278 277 277 276 275 275 275 275 276 276 276 276 276 274 272 270 269 268 265 264 263 263 263 263 263
287 287 286 284 283 284 284 283 283 282 281 280 279 279 279 278 276 275 275 275 276 277 277 277 276 276 275 274 270 269 268 266 265 266 266 265 264 263
287 286 285 283 283 284 284 284 283 282 283 283 282 281 281 279 278 277 277 276 277 277 277 276 276 275 275 275 273 270 269 268 267 267 266 265 264 264
286 285 284 282 282 283 283 282 282 282 284 285 284 283 282 281 280 279 278 278 278 278 277 276 276 275 275 275 275 273 271 270 270 269 268 267 266 264
285 284 284 282 281 280 281 282 282 283 283 284 284 283 283 282 281 281 281 280 280 279 278 277 276 276 275 275 274 273 272 271 270 270 269 268 267 266
Height
5778 5777 5775 5774 5772 5771 5769 5768 5767 5765 5764 5763 5762 5761 5760 5760 5761 5761 5760 5760 5760 5760 5761 5761 5762 5763 5764 5765 5767 5768 5770 5772 5774 5775 5776 5777 5778 5779
5773 5771 5769 5768 5766 5765 5763 5761 5760 5758 5757 5756 5755 5754 5754 5754 5754 5754 5753 5753 5754 5754 5754 5755 5756 5757 5758 5759 5761 5763 5764 5766 5768 5769 5770 5771 5773 5774
5767 5765 5763 5762 5760 5758 5757 5755 5753 5752 5750 5749 5748 5747 5747 5747 5747 5747 5747 5747 5747 5747 5747 5748 5749 5750 5752 5753 5755 5757 5758 5760 5761 5763 5764 5766 5767 5768
5761 5759 5757 5755 5754 5752 5750 5748 5747 5745 5744 5743 5742 5742 5741 5741 5741 5741 5740 5740 5740 5740 5741 5742 5743 5744 5745 5747 5748 5750 5752 5753 5755 5757 5758 5760 5761 5761
5755 5753 5751 5749 5748 5746 5744 5742 5741 5739 5738 5737 5737 5736 5735 5735 5734 5734 5734 5734 5733 5734 5734 5735 5736 5738 5739 5740 5742 5744 5745 5747 5749 5750 5751 5753 5754 5755
5749 5747 5745 5743 5742 5740 5738 5736 5734 5733 5731 5730 5730 5729 5729 5728 5728 5728 5727 5727 5727 5727 5728 5729 5730 5731 5733 5734 5736 5737 5739 5740 5742 5744 5745 5747 5748 5749
5742 5741 5738 5737 5735 5734 5732 5730 5728 5726 5725 5724 5723 5723 5722 5722 5722 5721 5720 5720 5721 5721 5722 5723 5724 5725 5726 5728 5729 5730 5732 5734 5735 5737 5739 5740 5741 5743
5736 5734 5732 5730 5728 5727 5725 5724 5722 5720 5718 5717 5717 5717 5716 5716 5715 5715 5714 5714 5715 5716 5716 5717 5718 5719 5720 5721 5722 5724 5725 5727 5728 5730 5732 5733 5735 5736
5729 5727 5725 5723 5721 5720 5718 5717 5715 5713 5712 5711 5710 5710 5710 5710 5709 5709 5708 5708 5709 5710 5710 5711 5712 5713 5714 5715 5716 5717 5718 5720 5721 5723 5724 5726 5728 5729
5722 5720 5718 5716 5714 5713 5711 5710 5709 5707 5706 5705 5704 5704 5703 5703 5703 5703 5702 5702 5703 5703 5704 5706 5706 5707 5707 5708 5709 5710 5711 5713 5714 5715 5717 5719 5720 5721
5714 5713 5711 5709 5707 5706 5705 5704 5702 5701 5700 5699 5698 5698 5697 5697 5696 5697 5697 5697 5697 5698 5698 5699 5699 5700 5701 5701 5702 5703 5704 5705 5706 5707 5709 5711 5713 5714
5707 5706 5704 5702 5701 5699 5698 5697 5696 5695 5694 5693 5692 5691 5691 5690 5690 5690 5691 5691 5691 5691 5691 5692 5693 5693 5694 5694 5695 5695 5696 5697 5698 5700 5701 5703 5704 5706
5700 5699 5697 5696 5694 5693 5691 5691 5689 5688 5688 5687 5686 5685 5684 5684 5683 5683 5683 5684 5684 5684 5684 5684 5685 5685 5686 5687 5687 5688 5688 5689 5690 5691 5693 5694 5696 5697
5693 5692 5690 5689 5687 5686 5685 5684 5683 5682 5681 5680 5679 5678 5678 5677 5677 5676 5676 5676 5676 5676 5676 5676 5676 5677 5678 5679 5679 5680 5680 5680 5681 5683 5684 5685 5687 5688
5686 5684 5683 5681 5680 5678 5677 5676 5675 5675 5674 5673 5672 5672 5671 5670 5670 5669 5669 5669 5668 5668 5668 5667 5668 5668 5669 5669 5670 5670 5671 5672 5673 5674 5675 5676 5678 5679
5678 5677 5675 5673 5672 5671 5670 5668 5668 5667 5666 5666 5665 5664 5663 5663 5662 5662 5661 5661 5661 5660 5659 5659 5659 5659 5660 5660 5660 5661 5662 5663 5664 5665 5666 5667 5668 5669
5670 5669 5667 5665 5664 5662 5661 5660 5659 5659 5658 5657 5656 5656 5655 5654 5654 5653 5653 5653 5653 5652 5652 5651 5650 5650 5650 5651 5651 5651 5652 5653 5654 5655 5656 5657 5658 5659
5662 5660 5658 5657 5655 5654 5653 5652 5651 5650 5649 5648 5647 5647 5646 5646 5645 5645 5645 5644 5644 5644 5643 5643 5642 5642 5642 5642 5642 5642 5642 5643 5644 5645 5646 5647 5648 5649
5653 5652 5650 5648 5647 5645 5644 5643 5642 5641 5640 5639 5639 5638 5637 5637 5636 5636 5636 5635 5635 5635 5635 5634 5633 5633 5633 5633 5633 5632 5632 5633 5634 5635 5635 5636 5638 5639
5645 5643 5641 5640 5639 5637 5636 5635 5634 5633 5632 5631 5630 5629 5628 5628 5627 5627 5627 5626 5626 5626 5625 5624 5624 5624 5623 5623 5623 5623 5622 5622 5623 5624 5625 5625 5626 5627
5636 5634 5633 5632 5630 5629 5628 5627 5626 5625 5624 5622 5621 5620 5619 5619 5618 5617 5617 5616 5616 5616 5615 5614 5614 5613 5613 5612 5613 5613 5613 5612 5612 5613 5614 5615 5615 5616
5628 5626 5624 5623 5622 5621 5620 5619 5617 5616 5615 5614 5613 5611 5610 5609 5609 5608 5607 5607 5606 5605 5605 5604 5603 5602 5602 5602 5602 5602 5602 5602 5602 5602 5602 5603 5603 5605
5619 5618 5616 5615 5614 5612 5611 5610 5609 5608 5606 5605 5604 5602 5601 5600 5599 5598 5597 5597 5596 5595 5594 5593 5592 5592 5591 5591 5591 5591 5591 5591 5591 5591 5592 5591 5592 5593